Theta_e
361 361 362 361 361 361 362 359 358 358 358 354 353 352 347 347 342 339 339 342 339 344 344 342 359 356 356 360 357 358 361 355 357 359 363 362 363 353 346 346 345 345 345 346 346 347 349 349 349 350 351 351 351 352 351 350 351 352 351 351 350 350 350 350 349 348 349 349 348 348 348 348 348 348
365 363 362 362 360 363 362 361 361 361 361 355 353 352 353 352 345 344 339 340 345 344 347 345 343 363 357 355 358 360 359 354 357 355 355 356 357 348 346 346 345 345 344 343 343 344 346 346 346 345 345 346 348 349 349 349 349 350 350 351 351 351 350 348 348 348 348 348 349 348 348 348 348 347
365 366 364 364 362 364 362 363 361 362 362 360 354 352 353 353 353 350 346 340 347 349 346 348 350 349 353 352 353 355 355 356 357 356 357 357 352 348 355 346 345 344 342 341 340 340 340 340 340 341 342 342 344 345 346 347 347 348 348 349 350 350 349 348 346 347 347 347 348 347 347 348 347 347
365 367 366 367 366 365 364 363 362 362 364 363 359 358 356 356 357 355 350 346 345 351 348 349 353 353 354 354 353 355 357 357 356 359 356 358 353 357 357 351 345 343 341 340 339 337 335 335 337 339 340 342 343 345 344 343 344 344 344 346 347 347 347 345 345 346 346 347 346 346 346 347 347 347
366 367 367 367 368 369 366 364 363 361 363 365 363 361 359 357 359 357 354 350 349 354 357 355 354 357 360 355 358 356 355 359 360 357 362 362 358 357 357 356 349 343 340 338 337 336 335 335 336 338 339 341 342 344 345 343 341 340 340 340 340 341 343 342 342 344 345 345 345 345 345 346 346 345
366 368 368 367 366 368 367 365 362 362 359 360 359 361 360 359 359 361 357 355 352 351 357 356 360 358 360 358 363 361 359 359 361 359 358 358 361 361 360 358 357 346 341 337 335 335 334 334 335 335 337 338 339 340 341 340 338 337 337 335 335 336 336 338 340 342 343 343 344 344 344 344 344 344
367 366 368 366 366 365 366 367 365 362 362 361 360 360 361 361 360 361 362 358 355 354 354 359 357 357 359 359 360 363 363 364 362 362 361 358 358 358 357 357 356 348 342 338 336 334 334 334 334 333 335 336 336 336 335 335 335 335 334 332 333 334 334 334 337 340 340 341 343 344 343 343 343 343
366 365 366 365 364 364 366 367 366 365 363 363 364 363 364 364 363 364 364 364 360 359 355 360 359 360 359 360 363 363 364 362 361 360 361 360 358 357 357 356 355 350 343 340 336 335 334 333 332 332 332 332 331 331 330 330 331 331 330 330 330 330 330 330 332 335 335 336 338 340 342 342 341 338
368 366 365 365 365 367 365 366 366 366 367 367 364 363 364 364 364 365 364 362 361 357 354 357 361 363 363 363 365 366 363 363 364 364 362 360 361 361 359 357 356 348 342 341 338 336 335 334 333 332 332 331 330 329 328 328 328 328 328 328 328 328 329 329 328 330 331 331 333 332 335 337 338 337
368 366 367 367 366 366 366 365 365 367 368 368 366 365 365 365 364 363 362 362 360 358 355 356 356 361 359 360 361 363 362 360 359 362 363 364 363 362 360 359 358 358 357 358 358 344 339 336 332 333 333 331 330 329 328 328 327 326 325 323 323 325 326 326 328 328 327 328 330 331 331 333 334 335
365 366 366 368 368 368 367 366 366 368 368 367 367 367 367 366 364 361 362 361 358 357 356 357 358 358 360 360 356 361 363 362 360 358 357 356 361 362 361 359 360 361 359 354 347 348 348 345 346 335 328 329 329 330 329 328 326 325 323 321 320 321 321 322 324 326 326 326 327 327 326 328 333 335
362 364 365 364 366 369 369 368 369 369 367 368 368 368 367 366 364 362 361 361 358 357 356 355 354 355 355 356 358 359 360 358 359 361 359 355 357 359 362 362 359 360 359 358 357 351 347 345 341 333 333 333 332 330 331 331 331 328 325 322 323 323 321 321 322 323 323 323 323 323 323 323 328 332
364 362 361 363 363 367 371 367 365 367 366 367 366 368 369 368 364 362 360 358 357 355 355 354 355 354 353 355 357 355 355 357 357 361 362 359 359 359 357 358 360 359 357 358 358 359 361 359 358 358 359 360 348 341 334 338 337 332 326 324 325 325 324 322 321 322 322 322 322 321 322 323 325 330
362 362 362 357 368 368 368 362 351 344 346 348 358 364 367 367 365 361 359 357 356 356 353 352 352 351 351 353 357 356 358 361 363 361 361 357 357 357 354 354 357 360 358 356 356 358 361 358 356 355 356 357 361 358 357 352 345 339 330 327 326 325 325 323 322 321 321 321 321 320 320 322 324 326
361 360 362 362 366 371 362 364 345 342 338 338 336 337 341 352 366 364 360 358 359 355 356 355 356 355 356 358 361 360 359 359 360 359 358 356 353 350 347 345 354 363 360 358 358 357 360 359 355 357 357 356 357 358 357 345 340 334 332 329 327 326 325 325 324 323 321 320 320 320 319 321 322 323
362 361 359 358 359 362 366 368 370 353 339 334 334 332 332 334 335 338 358 361 359 358 357 356 357 358 357 358 361 359 360 357 353 354 354 352 349 348 347 348 348 358 363 356 355 353 359 359 356 356 357 357 357 356 346 339 338 334 331 330 328 327 326 326 326 326 324 322 322 322 322 322 323 323
363 364 363 362 361 358 371 367 367 371 370 339 329 331 331 331 330 330 329 331 355 361 358 357 357 358 359 359 361 362 362 352 348 350 349 350 350 351 350 350 351 355 362 357 352 349 352 354 352 351 354 356 357 356 344 338 337 336 332 330 329 328 327 326 326 326 324 323 321 321 322 321 322 321
365 365 365 366 365 365 365 367 367 369 369 371 365 356 355 358 351 331 326 325 325 337 357 360 358 361 364 360 363 366 361 351 348 350 349 352 351 351 351 355 354 355 358 354 352 346 347 351 349 347 351 355 355 356 347 338 335 333 331 331 329 327 326 326 325 324 324 323 321 320 319 319 319 319
366 368 367 368 367 369 369 369 369 370 372 372 371 370 368 368 369 369 361 350 349 348 350 358 363 365 364 363 364 365 362 351 350 353 353 354 353 352 351 351 353 354 357 356 352 343 346 350 348 348 350 350 351 352 340 335 333 332 330 329 329 327 326 325 325 324 323 322 321 319 318 317 317 316
369 369 369 370 369 369 369 361 346 355 370 370 368 367 368 368 367 366 362 351 353 364 363 362 362 363 362 346 365 364 357 352 351 353 353 352 350 346 345 343 346 346 353 354 349 344 343 348 345 345 349 349 348 350 351 338 334 331 329 329 328 326 324 324 324 323 322 322 321 319 317 315 314 314
367 367 369 370 367 368 371 355 338 333 347 367 365 365 365 365 362 362 364 346 335 334 331 330 330 327 325 326 324 323 322 343 350 353 347 347 348 346 343 343 343 343 346 346 348 345 342 346 346 345 346 348 346 348 349 351 338 333 329 326 326 324 324 322 321 321 321 321 320 319 318 314 313 314
367 368 363 368 369 369 370 346 333 329 348 367 365 363 360 360 359 361 363 363 362 325 326 329 332 330 329 328 326 324 323 321 327 351 345 343 343 341 341 338 340 341 343 345 348 345 342 346 346 343 346 346 346 347 349 349 346 336 332 326 323 323 322 322 320 320 320 320 320 318 316 314 313 321
367 369 366 360 357 362 360 341 331 326 348 367 364 361 359 357 358 360 364 363 366 369 368 368 370 361 343 355 363 358 330 322 329 349 348 347 344 341 339 338 338 335 337 342 350 341 341 341 341 342 339 336 340 345 347 347 347 349 351 352 354 324 321 321 319 317 317 319 318 318 315 313 314 323
367 367 370 363 334 331 331 330 327 323 325 362 366 364 361 359 358 363 364 366 363 366 364 363 363 362 361 353 352 352 351 350 355 354 348 345 341 338 338 336 335 333 335 344 347 339 339 339 336 340 336 331 330 336 340 341 342 342 345 346 345 335 326 324 320 317 315 316 316 316 314 311 316 325
364 366 367 368 343 326 325 323 321 319 316 331 363 363 361 363 357 350 363 365 358 361 360 360 359 354 349 349 347 344 346 341 343 341 342 341 340 338 337 336 337 338 340 345 336 340 334 335 334 335 334 333 331 331 335 336 339 340 342 343 344 347 352 346 338 341 318 314 313 312 311 311 314 324
364 365 366 369 350 323 323 321 318 315 317 316 351 359 336 325 331 360 361 362 360 359 359 355 347 344 342 342 342 340 340 339 340 340 340 340 342 343 343 340 339 336 336 342 331 337 333 331 332 330 330 329 329 331 329 331 335 338 340 341 343 347 349 350 347 346 346 334 323 315 316 312 314 318
363 367 369 367 352 319 316 314 313 313 313 320 341 328 326 327 328 343 357 357 356 355 352 347 343 341 343 340 339 339 338 338 344 342 343 344 344 345 345 344 343 341 341 342 341 339 337 332 336 332 329 330 328 328 329 328 331 337 337 339 343 346 347 347 347 350 345 332 326 314 312 311 313 317
362 365 367 363 326 312 308 309 312 314 317 340 323 318 319 318 328 351 354 351 352 347 342 340 341 343 342 341 338 338 341 340 346 346 345 346 345 345 345 346 343 344 343 342 342 340 338 335 334 336 335 332 329 327 326 331 332 333 333 339 343 346 347 350 350 350 340 331 328 321 320 318 319 321
363 328 308 306 308 308 307 308 309 312 317 310 311 313 317 332 348 353 353 347 346 343 342 343 342 341 341 341 341 344 348 348 348 348 346 347 346 346 345 344 344 344 343 341 341 340 339 337 335 336 334 334 332 332 331 330 331 333 336 337 337 341 343 346 345 344 340 333 329 325 323 322 321 325
317 310 310 308 308 311 318 341 353 354 342 318 318 317 328 348 354 349 347 347 343 343 341 340 339 339 339 339 343 347 349 346 343 344 342 341 342 341 339 338 340 341 339 340 340 340 339 337 336 335 333 334 335 334 335 335 333 336 337 338 339 340 344 346 348 346 340 334 330 327 327 325 323 325
346 336 342 343 331 330 328 333 333 332 325 332 333 336 341 347 346 344 345 342 343 342 340 338 339 338 340 342 345 342 342 342 343 343 340 339 337 339 339 337 337 335 337 339 339 340 339 339 338 336 333 332 335 337 337 335 334 333 334 335 334 332 338 343 343 344 341 336 333 329 327 326 326 326
356 353 327 329 347 346 348 349 349 345 345 342 340 343 344 344 342 342 338 340 346 345 344 341 340 339 342 340 337 338 338 338 339 342 339 337 337 336 338 336 334 333 334 337 337 340 340 340 338 337 336 337 335 332 331 330 327 325 325 328 331 336 341 341 341 341 340 335 329 326 326 325 325 325
355 354 350 351 350 351 351 348 349 346 346 343 343 345 343 342 340 338 336 336 340 343 341 340 339 336 337 338 337 337 337 339 339 341 339 340 339 338 338 333 330 330 330 331 334 335 338 339 339 336 337 343 337 330 326 322 321 321 321 324 330 335 338 341 341 339 335 332 328 325 323 325 325 324
355 353 351 351 349 349 349 348 346 345 345 344 340 339 332 336 334 334 336 340 340 341 339 338 335 335 334 336 335 335 334 337 338 337 331 338 338 336 333 330 329 331 331 330 330 332 334 336 335 335 337 341 332 329 326 320 316 317 320 326 331 331 334 337 339 336 333 330 327 323 322 322 323 323
354 352 352 351 351 349 349 348 347 347 343 338 335 334 334 337 335 335 337 338 337 335 337 334 334 334 335 334 334 333 334 334 335 335 336 336 336 333 332 330 329 330 330 327 328 330 331 331 331 329 329 331 332 334 327 324 318 316 319 324 325 328 330 332 334 333 330 328 327 322 319 317 316 319
351 352 352 351 351 349 347 347 346 343 339 335 334 333 331 334 338 336 338 338 339 336 336 335 333 334 333 334 334 333 332 330 334 334 334 333 332 331 331 330 329 330 331 329 328 329 329 330 328 325 323 323 323 321 323 324 320 317 316 319 323 325 326 327 329 329 329 325 323 320 315 313 314 318
351 352 351 351 351 350 348 348 345 341 338 335 334 334 334 335 335 339 343 343 342 337 335 337 334 332 333 333 332 331 331 333 333 333 333 332 331 330 330 328 329 330 330 329 329 328 329 328 327 325 323 321 319 317 318 323 319 316 316 318 321 323 324 324 323 321 323 323 321 320 317 316 315 318
352 352 350 350 351 351 349 345 343 339 338 337 337 336 337 338 341 343 342 341 338 334 331 335 332 331 334 331 335 333 333 334 333 332 330 332 330 329 328 328 329 329 329 327 328 327 328 327 326 325 323 319 318 316 316 319 321 319 311 316 320 321 324 322 319 318 318 321 319 319 320 317 317 321
351 351 351 351 349 348 344 339 338 338 338 337 339 340 341 341 340 339 338 338 338 336 336 335 333 334 332 334 333 334 333 330 331 329 329 330 328 328 327 327 329 330 328 326 326 326 326 326 326 325 324 322 319 319 320 318 318 322 317 306 317 321 321 320 318 318 317 316 317 318 319 321 318 316
351 349 351 350 344 342 340 341 340 341 339 339 339 340 339 337 339 339 338 337 337 339 339 335 334 329 334 334 331 334 333 332 330 329 328 329 328 328 327 329 329 328 327 325 323 324 324 325 327 326 326 326 329 329 328 326 324 324 323 316 305 312 319 322 319 317 316 318 318 316 315 318 316 319
337 335 334 336 337 338 338 338 338 338 338 339 339 334 340 340 340 339 339 338 338 337 337 335 334 335 336 334 334 331 331 329 330 329 329 328 328 326 325 323 328 328 327 325 324 323 323 327 331 323 332 332 332 333 328 323 320 320 320 320 310 307 308 313 321 320 319 321 318 314 313 314 314 316
332 331 332 333 333 334 335 335 335 335 335 336 335 334 337 339 340 329 330 329 338 339 338 335 335 333 335 334 333 328 330 330 329 328 329 327 329 327 325 325 326 327 326 324 325 324 327 331 331 332 331 329 325 322 320 320 320 320 322 322 321 313 310 308 308 309 315 318 318 315 313 313 315 313
330 330 330 332 334 333 333 332 334 334 335 336 336 336 336 336 332 331 335 335 336 334 334 334 334 333 334 335 333 331 330 330 329 330 330 328 327 327 325 326 325 327 327 326 327 327 328 330 330 326 326 324 323 321 318 319 322 321 321 321 320 320 319 314 310 310 310 308 309 314 320 317 313 309
330 330 331 333 333 334 333 334 333 333 334 335 335 335 334 334 333 334 334 334 333 334 334 334 334 333 334 335 333 332 331 329 329 329 329 327 327 327 326 326 325 328 327 327 326 326 326 326 326 325 323 321 320 320 318 318 317 317 318 319 322 321 319 319 320 316 315 312 309 308 310 311 313 313
331 331 330 330 330 331 331 332 334 334 336 334 333 333 332 333 331 332 333 333 333 333 333 334 333 335 334 333 331 331 331 325 325 328 329 330 327 326 328 326 325 324 325 326 325 325 325 325 324 325 324 323 322 320 318 316 316 317 316 318 318 319 317 317 316 316 316 316 312 308 309 310 312 311
Wind_Speed
6 5 6 5 4 4 3 3 3 2 2 3 3 3 4 3 5 6 6 4 5 3 4 3 4 2 3 4 3 4 5 4 5 7 7 8 9 10 16 17 17 18 19 19 19 19 20 20 20 20 20 20 20 20 20 19 19 19 19 19 19 19 19 17 17 17 16 16 16 15 15 15 16 15
5 5 5 5 5 4 5 5 4 3 3 3 3 4 3 3 4 5 6 6 5 5 4 4 1 4 4 5 6 5 6 3 6 7 8 8 9 10 13 16 17 18 19 20 20 20 20 20 21 21 21 21 21 21 22 21 21 22 21 21 21 21 21 20 18 18 18 18 17 17 16 16 16 15
5 6 6 5 5 4 5 4 4 4 4 3 4 4 4 4 5 5 5 8 4 4 5 5 6 6 5 7 7 6 6 5 8 7 8 9 12 12 11 14 17 18 19 20 20 20 21 22 22 21 21 21 22 22 23 23 23 23 23 22 22 22 21 20 19 19 18 18 17 17 17 17 17 16
6 6 7 6 5 5 5 5 5 4 5 4 4 4 5 5 5 5 6 8 9 6 8 8 8 9 8 7 7 8 6 6 9 9 9 10 11 10 11 16 19 20 20 21 21 22 22 23 23 22 22 22 22 23 23 23 24 24 23 23 22 21 21 20 19 19 19 19 18 18 17 17 16 16
6 7 7 7 7 6 6 5 5 5 5 5 5 5 5 6 6 6 7 8 9 7 7 7 8 8 8 9 7 8 8 7 6 9 10 11 10 10 10 11 16 21 22 22 22 22 22 22 22 22 22 22 22 23 23 24 24 24 23 23 22 22 22 21 20 20 19 19 19 18 18 17 17 16
7 7 8 8 8 8 8 7 7 6 6 6 6 5 6 6 6 6 7 8 8 9 7 7 7 8 7 9 7 7 8 9 8 10 9 9 10 10 10 11 12 16 20 22 22 21 21 20 21 21 22 22 22 23 23 24 24 24 24 23 23 23 22 22 21 21 20 20 20 19 18 18 17 16
8 9 8 9 8 7 8 8 8 7 7 6 6 6 5 6 7 6 7 8 9 10 9 7 8 7 7 8 8 9 9 8 9 9 10 10 9 9 11 11 12 15 15 18 19 19 18 18 19 20 21 22 22 23 23 25 24 24 23 23 23 23 23 22 22 22 22 21 21 21 20 19 18 17
9 9 9 9 8 8 8 7 7 6 7 6 6 7 7 7 8 7 7 8 8 8 9 7 7 8 8 8 9 8 8 9 9 9 10 10 11 11 11 12 13 12 14 14 14 16 18 19 20 21 22 22 22 23 24 24 23 22 23 23 22 22 22 22 23 23 23 22 22 22 21 20 19 18
8 8 9 9 8 8 8 7 7 7 7 6 6 6 6 6 6 6 6 7 8 9 10 9 7 8 8 8 8 8 9 8 9 10 11 10 10 11 12 11 11 14 15 16 17 17 18 19 20 21 22 22 21 21 22 22 22 22 22 22 22 22 22 23 23 23 23 22 22 21 21 20 19 18
9 9 9 9 8 8 9 8 7 7 7 7 7 7 7 6 6 7 8 8 9 10 10 9 9 7 8 8 7 8 8 9 9 10 10 10 10 11 11 10 9 9 10 10 9 11 14 18 22 23 23 23 23 22 23 23 23 22 22 22 22 22 23 23 23 23 22 22 22 21 20 20 19 19
10 10 9 9 9 10 10 9 8 8 8 7 8 8 7 7 7 7 7 7 8 9 9 9 8 8 7 8 8 7 7 9 9 11 12 13 10 9 9 10 9 9 12 15 18 17 15 17 16 17 22 23 22 22 22 23 24 23 23 22 23 23 23 23 23 23 23 22 22 21 20 19 20 20
11 11 10 10 10 10 10 10 9 8 7 6 7 7 7 6 7 7 6 7 7 8 8 8 8 8 8 8 9 9 9 9 8 9 10 13 11 10 9 8 11 12 12 14 15 12 11 15 20 24 24 24 20 20 22 24 24 24 24 24 24 25 25 25 25 24 23 22 22 21 20 20 21 20
10 11 11 11 11 10 10 10 8 6 4 5 6 7 6 7 7 7 7 7 8 8 8 9 8 9 9 9 9 10 9 10 11 9 8 10 10 10 11 14 13 13 15 14 14 13 11 13 13 13 12 10 13 19 25 21 25 25 24 25 24 25 25 24 24 24 24 24 22 21 22 22 22 21
11 11 11 11 11 9 10 10 11 11 10 9 10 8 7 8 8 8 8 8 9 9 9 9 9 10 10 10 10 11 12 10 8 7 8 10 12 13 14 14 13 13 13 15 14 14 12 14 16 14 14 14 12 12 11 12 15 18 24 24 24 24 21 23 23 24 25 25 24 23 23 23 22 22
11 11 11 11 10 10 10 12 14 13 14 14 15 16 14 11 9 8 9 9 9 9 9 9 9 10 10 11 11 11 13 9 6 5 7 8 10 12 14 18 14 7 11 13 10 12 12 13 15 14 14 14 13 14 15 16 13 19 20 23 24 24 24 24 24 24 24 23 23 23 24 24 23 23
10 11 11 10 9 10 11 11 11 14 16 16 16 17 16 16 16 14 11 10 10 11 10 9 9 10 10 10 9 11 11 6 5 5 7 10 12 13 14 14 16 13 14 16 14 14 13 11 14 14 14 13 13 16 17 17 17 17 19 20 21 22 23 24 25 25 24 23 23 24 24 23 24 24
10 9 9 9 9 9 10 10 11 9 11 16 18 17 17 16 16 16 17 16 13 12 13 12 10 10 10 11 9 9 7 8 12 10 8 9 10 12 13 14 15 17 14 17 16 16 16 12 13 16 15 14 14 16 17 19 20 21 19 20 20 21 22 24 24 24 24 24 24 23 24 23 23 23
11 11 10 9 9 9 10 9 10 10 11 8 9 10 10 11 14 17 19 20 21 18 13 12 11 11 11 11 10 9 2 8 13 12 15 14 16 16 16 16 17 18 13 14 14 17 17 13 14 16 14 14 15 14 18 19 18 18 19 20 20 21 22 23 22 22 23 21 22 23 23 23 23 24
11 10 10 10 10 9 9 9 9 10 9 8 8 9 9 10 10 9 11 12 10 10 11 12 13 11 10 9 9 9 4 6 12 10 14 17 17 18 19 16 14 14 12 13 11 16 17 13 15 16 15 15 16 15 17 17 18 18 18 19 19 21 22 22 22 22 20 20 21 22 22 22 24 25
11 11 11 10 11 10 10 10 10 9 8 8 9 10 10 10 10 9 9 5 8 9 9 9 10 8 2 1 5 2 7 8 12 13 13 13 13 13 13 13 12 12 10 11 13 16 17 15 16 16 16 16 17 15 15 16 17 15 15 17 19 20 20 21 21 21 20 21 21 21 22 22 24 25
12 12 11 12 11 11 11 11 10 11 9 10 10 11 11 10 9 10 8 11 15 15 16 14 8 10 11 12 12 14 11 11 11 11 12 12 11 11 13 14 14 13 12 11 12 15 18 15 15 16 16 16 17 16 16 15 18 18 16 15 18 19 19 21 21 20 20 21 21 20 22 23 23 23
11 12 13 12 12 12 11 9 11 11 10 9 10 11 12 11 11 10 9 7 5 7 2 4 9 11 12 14 15 13 12 13 8 9 9 10 10 12 12 14 14 15 14 12 11 12 14 15 14 17 16 15 14 14 14 14 14 12 14 15 17 18 19 20 20 19 19 21 20 21 22 22 22 16
10 11 11 15 15 13 11 7 9 11 10 9 10 11 10 11 11 9 9 7 4 2 4 5 5 7 10 10 8 8 17 15 14 10 10 10 10 11 12 13 14 15 12 10 12 13 14 15 15 14 16 15 13 12 12 14 14 14 13 13 8 13 17 18 18 19 20 21 21 22 23 21 18 11
11 11 11 11 16 17 15 12 8 11 12 9 10 10 10 10 11 8 6 5 3 5 7 10 10 10 7 6 5 4 3 7 11 10 7 7 8 10 11 12 12 13 12 9 14 12 14 14 16 13 13 16 15 11 14 13 13 14 14 14 15 8 12 14 13 18 19 19 22 22 19 21 22 14
10 10 11 10 13 18 17 16 16 13 13 10 10 10 12 7 3 5 8 6 3 7 8 9 8 4 4 3 4 3 3 4 3 5 6 7 8 9 10 11 11 12 12 11 14 13 13 14 15 14 13 12 14 16 12 14 13 14 14 13 13 13 9 7 9 9 15 20 17 16 21 23 26 19
10 10 9 9 10 16 16 17 16 15 13 12 8 11 9 4 3 4 4 5 8 7 6 5 4 4 4 4 4 4 4 5 5 6 6 7 8 8 9 10 11 12 13 13 14 13 14 14 15 16 17 15 15 14 16 15 14 12 12 14 14 12 11 8 5 7 5 7 9 13 17 24 27 27
10 9 8 9 9 14 14 14 14 13 11 8 9 8 1 2 2 3 6 4 3 4 3 2 3 3 3 3 3 3 5 4 5 6 6 8 8 9 9 9 9 11 11 13 13 12 12 14 12 13 17 16 17 16 14 16 15 12 13 13 14 12 11 10 8 7 5 7 9 18 20 24 27 26
9 9 10 7 11 13 13 10 9 8 11 7 10 9 7 7 6 4 4 3 3 3 2 2 3 3 2 3 2 4 4 5 5 6 7 7 9 9 9 10 11 10 12 12 11 11 12 13 13 13 13 14 16 16 16 10 12 14 13 12 13 13 11 9 8 4 4 6 7 8 8 9 11 13
7 6 11 13 11 11 11 11 10 8 6 7 12 11 11 10 6 5 5 4 4 4 3 4 3 2 0 2 2 3 4 5 6 6 6 7 8 8 9 10 10 10 8 8 10 10 11 11 14 13 12 11 13 12 12 11 13 14 13 13 14 14 13 12 9 7 6 8 9 11 11 11 12 11
9 9 11 12 12 10 9 7 6 6 6 8 10 11 10 6 5 5 5 5 5 4 4 3 2 1 1 2 3 3 4 5 5 6 7 8 8 8 8 10 10 10 10 9 9 9 10 11 12 12 13 11 11 14 14 12 12 14 14 13 14 14 10 9 7 6 7 9 10 11 13 11 14 16
4 7 5 5 6 7 6 5 9 10 10 7 6 5 6 5 4 5 5 5 5 4 2 3 1 1 1 1 2 2 3 3 4 4 6 6 7 7 7 8 8 9 10 11 9 8 9 9 11 13 12 11 13 13 12 11 12 14 15 14 14 13 13 12 9 6 8 9 9 10 11 10 11 11
14 7 9 9 6 6 6 6 5 5 5 5 5 5 5 5 4 3 5 3 2 2 2 1 1 1 0 2 2 2 2 3 4 4 5 6 7 6 6 6 7 8 9 9 10 11 9 8 9 11 11 11 9 9 10 11 12 13 15 15 14 14 13 13 9 5 5 6 7 7 9 11 12 10
12 8 6 8 8 7 8 7 7 6 6 5 5 5 5 5 5 5 5 5 5 4 4 3 2 1 1 1 1 2 2 2 3 3 4 5 5 6 6 6 7 8 9 9 9 10 11 11 10 10 11 7 8 9 10 12 13 13 14 14 13 12 12 10 8 1 6 7 8 9 9 9 9 11
10 11 10 9 9 9 9 9 8 8 8 7 6 6 6 6 7 7 6 6 5 4 3 3 2 1 1 1 1 2 2 1 2 2 4 4 5 5 6 6 7 8 8 9 10 11 11 11 12 10 10 6 8 10 11 12 14 15 13 12 10 11 9 9 5 5 8 8 10 10 9 9 7 7
12 11 11 11 10 10 9 9 9 9 8 7 7 7 7 7 7 6 6 5 5 5 4 2 1 1 1 1 1 2 2 2 3 2 3 3 4 5 5 6 7 8 8 10 10 11 11 10 11 13 11 9 4 7 15 13 13 15 13 10 9 9 8 8 5 4 7 8 10 11 10 10 9 7
10 11 11 11 11 10 10 10 9 8 8 7 8 8 8 7 6 7 5 5 5 4 3 3 2 1 1 1 1 2 2 3 3 2 3 4 5 6 5 6 7 8 8 9 10 10 11 10 10 11 12 12 11 11 11 15 14 11 14 12 10 9 8 8 9 7 6 8 8 11 12 12 10 8
10 11 11 10 10 10 10 10 9 9 9 9 9 9 8 7 7 5 6 4 3 3 1 2 3 2 2 2 2 3 3 3 2 2 3 3 4 5 6 6 7 7 8 8 9 10 10 10 10 11 12 12 13 14 13 11 12 15 10 10 10 10 9 7 7 8 8 7 8 8 11 12 11 9
9 9 10 9 9 9 9 8 9 9 8 8 8 8 7 7 6 6 6 5 5 4 5 5 4 3 3 2 3 2 2 2 2 2 2 2 4 4 6 6 7 7 7 8 9 9 9 9 9 9 11 12 12 13 14 13 12 12 16 10 9 10 8 6 7 8 9 9 10 9 9 12 11 9
9 9 10 9 9 9 8 8 8 8 8 7 7 7 6 6 6 6 6 5 5 4 4 3 3 3 3 3 3 3 3 2 2 2 2 2 3 4 6 6 6 6 7 8 8 9 9 9 9 9 9 10 11 11 9 9 11 11 14 17 9 8 9 7 9 9 10 11 11 11 10 9 11 15
5 3 3 5 7 8 8 7 7 7 7 6 6 5 6 6 5 5 5 4 4 3 3 3 2 3 4 3 3 4 3 3 3 2 2 2 3 4 5 6 6 6 6 7 8 8 9 9 8 8 8 9 5 2 4 3 7 8 10 13 19 13 9 7 9 9 9 8 7 9 10 7 7 5
6 7 7 7 6 6 7 6 6 7 6 6 5 5 5 5 5 5 4 3 4 4 4 4 4 5 4 3 4 4 3 2 2 1 2 2 2 3 4 7 4 5 6 6 7 7 8 7 6 8 8 6 7 5 5 8 10 10 10 11 14 18 19 15 9 7 7 5 6 8 9 7 7 5
7 7 7 6 7 6 6 5 5 6 6 6 5 5 4 4 3 4 3 2 3 3 3 4 4 5 4 4 4 4 4 3 2 1 2 3 3 3 2 3 5 5 5 6 6 7 6 6 7 5 5 6 7 7 8 9 8 8 8 8 9 11 13 16 18 15 9 5 5 8 8 8 6 6
9 9 9 7 7 7 7 7 6 5 5 5 5 5 5 4 5 4 4 4 4 5 4 4 3 4 4 4 4 3 3 3 2 2 2 2 3 4 4 4 5 5 5 5 5 5 6 6 7 6 6 6 7 6 7 6 5 4 4 5 6 7 8 11 13 15 15 15 10 5 2 3 4 4
10 9 7 7 6 6 6 7 7 7 6 6 5 4 4 5 4 3 2 3 4 4 3 3 3 4 4 4 3 4 4 2 2 3 3 3 3 4 5 5 5 5 5 5 6 6 7 7 7 7 7 7 7 6 6 5 5 5 4 4 3 3 5 5 6 9 10 12 14 10 8 6 5 8
10 10 10 9 8 7 7 6 6 6 6 6 5 4 3 3 3 4 5 3 4 2 3 4 5 4 4 3 4 5 2 0 4 4 4 5 5 5 5 5 5 5 5 5 7 7 7 7 6 7 6 6 5 5 4 4 4 3 3 2 2 2 2 2 3 4 4 4 10 12 9 9 8 10
Wind_Direction
221 223 223 236 243 256 260 267 274 287 295 280 283 284 288 303 298 307 313 313 318 333 323 321 148 167 199 217 250 240 244 238 203 247 241 247 257 220 209 220 224 227 229 232 232 232 233 234 234 233 233 233 233 232 231 231 231 231 232 233 234 235 237 235 234 233 231 229 227 224 222 227 231 236
225 229 226 219 233 225 228 227 238 243 238 244 241 246 252 249 271 293 295 298 300 300 290 280 278 164 226 243 238 248 256 212 214 263 265 260 259 255 212 219 225 227 230 232 233 234 236 236 235 234 234 233 232 232 232 231 230 231 231 232 231 231 232 233 232 232 232 232 229 227 225 228 232 234
224 225 230 230 240 242 248 253 236 225 227 229 238 243 241 245 252 267 275 285 271 295 293 295 295 291 276 274 284 282 277 222 211 256 264 258 256 255 241 225 227 230 231 232 233 234 235 236 236 236 234 233 232 232 231 230 230 231 231 231 231 233 233 234 234 233 234 234 231 230 230 229 232 231
221 220 225 228 236 236 239 239 240 232 229 238 236 227 228 235 237 241 254 264 276 275 287 292 288 276 278 279 276 281 278 270 201 250 255 255 252 245 251 236 229 232 232 234 233 234 235 235 236 236 235 235 234 235 234 233 232 233 233 233 234 235 235 235 234 234 234 235 234 233 231 229 227 228
227 226 226 230 230 234 235 236 241 240 224 221 229 229 230 233 229 228 239 257 270 271 268 277 282 289 289 285 281 277 275 269 254 230 244 252 256 257 257 259 232 225 231 232 234 234 235 237 238 239 239 239 238 238 237 236 235 234 234 233 233 232 232 232 232 232 232 232 233 231 230 227 225 226
229 225 229 232 233 229 233 235 240 242 247 235 232 226 227 237 237 224 237 250 267 277 273 271 273 278 275 276 265 266 271 275 272 269 268 261 254 254 260 259 262 235 226 231 233 234 236 239 241 241 241 241 241 240 241 241 239 236 235 233 232 230 230 230 229 230 229 230 230 229 227 226 224 223
226 228 229 233 232 230 229 230 237 244 246 250 252 247 243 244 251 244 233 249 264 274 278 276 276 273 274 273 278 270 268 269 267 267 265 263 262 261 257 259 261 260 246 235 236 237 240 242 244 245 244 244 243 242 242 242 240 239 238 236 234 232 230 229 229 228 228 228 228 227 225 222 221 220
226 229 230 236 236 232 229 233 239 240 239 237 235 244 243 244 247 251 249 244 262 278 286 285 283 292 291 285 279 278 271 267 265 264 269 267 266 265 264 263 266 266 267 262 249 243 240 239 241 243 244 243 240 241 242 242 241 240 239 238 237 235 233 231 229 227 227 227 226 225 223 220 218 215
230 233 235 234 231 229 234 233 234 236 236 234 239 243 243 244 246 251 258 263 264 273 280 284 282 285 281 281 286 287 288 286 276 265 260 266 267 264 263 267 271 278 272 260 253 245 238 238 242 246 248 246 243 244 246 246 245 242 240 239 238 237 235 234 231 229 227 226 225 223 221 219 216 212
226 229 228 230 232 230 229 237 237 238 236 234 237 241 246 252 257 261 261 262 267 271 276 282 286 277 281 287 285 287 288 291 292 289 283 274 262 262 268 269 274 281 286 289 269 240 233 236 240 245 245 243 240 240 242 242 243 242 240 238 238 236 236 234 233 232 228 225 224 221 219 217 214 210
228 227 226 225 225 228 229 232 232 227 231 234 240 238 241 243 248 255 253 255 261 264 271 276 274 281 283 291 298 299 295 291 286 288 292 290 273 263 265 280 278 276 278 273 260 257 263 270 264 245 239 241 239 239 240 241 240 239 236 234 232 233 233 233 233 232 229 226 223 219 214 214 214 210
233 230 230 230 226 226 230 230 228 226 231 235 240 240 238 238 243 254 260 263 266 269 273 276 288 294 298 290 285 290 288 285 277 267 280 285 284 283 280 274 293 288 280 279 284 271 238 234 241 248 254 253 242 236 240 241 242 237 235 232 231 229 228 227 228 228 227 226 222 215 209 209 211 207
233 236 235 234 235 228 227 228 232 236 241 238 245 247 242 243 248 252 259 264 269 274 274 278 282 285 284 286 285 289 292 293 291 289 277 273 272 276 289 296 298 292 290 287 290 293 304 296 290 293 287 266 230 229 230 238 235 235 234 230 231 231 230 229 228 224 222 222 219 212 208 206 205 202
234 234 240 242 232 220 210 206 210 217 220 230 248 254 251 247 251 254 259 261 264 269 274 276 279 284 287 290 295 295 292 287 295 296 284 285 293 298 299 297 293 294 293 297 297 300 305 303 300 296 286 285 268 268 241 230 226 228 226 230 230 231 232 232 229 226 223 219 212 208 207 205 200 197
237 239 236 242 224 201 206 211 210 213 215 220 228 241 250 257 259 261 260 262 267 269 270 276 278 280 287 292 297 293 291 312 349 310 302 301 306 305 306 305 304 278 295 302 295 290 288 295 293 286 278 281 279 274 268 273 233 224 221 220 224 225 224 227 227 227 225 220 215 210 206 203 198 194
233 236 240 239 239 233 230 233 210 210 217 219 223 231 236 239 246 249 254 265 269 265 270 273 278 285 285 290 291 298 316 334 309 289 289 296 295 293 293 293 295 301 305 303 301 293 285 284 282 281 279 280 277 269 268 260 249 231 224 222 222 222 223 225 224 224 220 216 213 212 209 203 197 191
231 233 233 240 238 241 212 222 237 234 213 212 221 222 228 237 237 237 240 244 248 265 268 275 277 274 278 280 287 310 333 321 303 299 292 284 282 287 291 292 296 299 308 304 298 296 294 293 280 276 275 277 273 274 262 250 245 243 230 224 224 223 223 223 223 221 218 213 210 207 207 205 197 187
228 229 230 230 232 233 232 231 231 233 239 233 208 213 221 228 226 224 228 226 229 234 246 255 264 264 272 279 294 305 75 307 295 301 299 302 302 301 296 298 294 291 294 291 299 295 288 287 286 281 282 278 280 278 277 270 260 246 238 234 228 226 227 227 225 222 220 213 209 207 207 199 194 188
231 230 229 231 234 233 232 231 227 234 234 236 248 250 248 240 253 231 214 208 218 218 225 234 240 248 262 270 262 269 81 256 267 275 282 293 296 296 296 290 280 279 276 275 278 284 287 295 290 288 292 293 290 289 283 269 259 255 248 240 234 228 228 229 227 224 220 213 209 206 203 197 193 192
228 229 231 231 234 236 238 227 211 224 237 252 258 259 257 263 263 263 257 230 208 225 219 214 230 241 332 144 272 265 142 221 268 285 287 288 285 287 289 289 291 286 284 287 287 289 289 292 289 291 292 291 288 289 292 289 286 275 254 243 236 231 228 228 227 224 217 213 209 203 197 195 195 195
231 229 226 228 233 235 235 230 196 199 212 245 256 261 266 270 273 275 270 198 204 220 229 250 299 330 296 282 272 262 238 216 246 267 275 271 274 278 288 292 298 299 305 299 290 288 288 289 291 293 291 291 291 292 291 290 284 279 266 244 239 233 228 227 227 222 218 214 210 200 195 194 194 192
234 231 225 229 231 235 237 221 185 188 189 233 248 261 267 270 271 270 268 275 233 178 159 177 211 221 236 239 246 250 245 229 221 233 250 278 296 292 291 296 302 302 302 297 301 296 289 302 303 301 301 297 290 296 300 302 302 282 269 247 236 235 225 225 224 220 216 214 207 201 195 192 186 178
233 235 224 218 228 235 239 214 182 178 189 233 252 258 266 267 269 270 277 284 299 232 260 249 252 244 228 229 233 222 208 211 196 221 256 286 285 292 300 301 301 300 300 314 342 314 309 313 312 318 312 305 305 310 319 325 322 323 319 310 278 231 232 228 222 217 217 211 205 201 194 183 166 169
228 232 234 216 208 224 234 234 200 175 197 225 248 258 260 268 264 283 285 82 29 327 306 295 297 294 299 291 280 274 240 212 202 224 266 289 301 300 295 295 294 294 303 328 18 333 313 310 308 320 310 310 310 322 319 315 317 315 314 311 309 267 217 233 235 229 223 211 208 199 181 166 167 175
231 226 227 239 198 202 216 222 226 209 197 217 241 251 258 268 3 4 286 270 34 301 294 291 286 285 285 296 298 309 295 301 343 331 320 305 301 301 296 298 305 303 309 323 358 321 312 311 307 313 308 303 300 305 315 314 310 312 310 307 308 307 305 248 222 223 215 217 212 182 178 172 174 182
231 232 229 236 198 186 203 214 219 218 207 211 224 244 259 47 357 324 299 293 284 284 286 283 287 305 319 312 323 319 326 337 356 333 323 315 308 299 303 311 313 310 310 320 325 313 311 308 308 309 305 303 300 301 307 309 307 310 315 313 306 303 306 302 225 230 201 178 183 184 181 177 182 190
233 234 237 238 178 175 191 200 207 209 200 186 224 234 140 165 122 241 263 257 269 277 283 295 291 287 288 309 320 342 346 344 357 322 319 314 310 311 310 315 308 299 301 312 314 312 313 310 309 305 304 300 297 300 299 305 308 309 302 299 303 300 303 307 290 260 228 184 183 185 183 182 184 191
232 235 238 229 156 168 175 181 180 171 170 208 188 177 170 159 179 203 213 237 240 247 253 249 267 273 307 325 346 355 352 339 332 316 311 316 321 320 318 313 306 301 300 298 307 318 326 317 315 312 307 307 303 299 298 292 289 299 299 296 297 301 309 303 277 265 190 167 153 148 154 175 187 185
242 63 77 95 112 118 122 128 129 136 157 137 144 156 161 172 189 202 226 215 202 212 208 228 235 265 358 14 358 354 329 321 316 314 317 321 319 317 315 312 307 306 303 314 319 324 322 321 323 320 313 310 309 300 292 287 295 294 299 303 303 310 307 294 285 273 197 169 168 164 175 171 169 179
77 92 94 101 107 113 124 144 176 179 141 141 144 159 177 198 215 208 201 194 195 206 213 213 224 240 3 11 3 328 315 325 334 329 325 325 327 332 332 328 326 327 331 327 323 326 330 330 329 325 319 313 310 310 306 301 301 304 310 312 315 310 301 308 287 267 193 184 184 184 185 175 172 176
170 120 155 119 112 111 133 92 89 99 120 140 155 171 197 204 190 185 196 192 197 205 223 196 202 116 21 352 303 314 329 310 328 335 321 320 328 329 330 317 316 326 326 330 335 337 331 327 325 333 329 317 312 330 335 333 329 333 327 326 324 312 315 314 301 254 205 194 187 177 173 165 171 181
224 195 109 130 145 137 154 157 168 164 162 167 175 187 190 187 166 111 56 40 227 197 200 110 126 92 334 291 327 322 317 347 336 332 328 327 317 322 319 315 327 326 325 332 336 338 340 340 335 329 324 330 350 354 346 350 350 341 327 323 319 313 317 320 315 258 179 150 148 154 156 161 163 164
210 198 178 208 211 212 210 204 196 186 184 182 183 176 179 171 170 177 181 185 189 170 188 169 184 162 276 309 293 293 305 331 309 323 326 309 308 315 316 323 335 336 333 338 343 340 339 338 338 333 327 354 42 34 8 359 355 345 329 320 317 324 329 335 327 6 133 158 166 156 155 160 152 156
201 200 212 210 209 212 214 211 202 199 201 188 174 176 180 182 180 181 190 199 173 175 174 165 182 107 268 235 288 290 300 290 289 315 302 308 312 312 327 339 344 339 336 341 347 347 342 339 337 345 351 82 81 48 39 21 356 346 333 321 338 334 337 328 317 154 156 162 148 144 147 135 125 122
202 207 215 216 212 210 211 208 207 202 192 175 172 171 180 197 182 188 193 181 165 175 175 162 120 162 262 297 308 287 289 296 300 319 318 320 324 328 334 340 342 340 342 350 352 353 346 348 347 348 357 8 49 99 78 50 6 356 341 337 341 334 349 359 9 110 113 115 128 127 116 107 105 94
198 213 215 213 212 204 206 206 201 195 186 170 174 173 181 189 172 187 176 151 188 177 169 161 155 187 208 246 262 284 281 293 281 324 321 343 340 338 335 342 338 339 340 347 349 352 349 352 355 358 357 358 358 357 8 50 54 9 358 344 347 345 353 16 31 52 100 114 119 126 126 124 117 112
202 210 210 210 209 201 204 198 195 192 181 173 180 181 179 171 173 159 112 148 198 171 129 188 180 191 187 215 234 244 262 267 285 305 310 334 343 339 338 339 342 342 339 351 352 353 351 352 359 2 359 359 359 356 356 351 39 45 2 349 351 4 5 25 32 50 53 83 93 113 126 126 126 120
208 203 204 207 204 197 198 191 183 178 170 173 173 173 170 160 143 129 148 176 179 170 168 205 169 205 212 186 232 241 276 269 275 294 319 334 348 350 344 342 337 348 342 355 358 2 354 355 1 4 4 5 355 353 346 353 358 22 27 9 3 11 3 31 49 60 65 62 79 90 106 115 124 132
201 199 199 197 190 191 182 163 167 171 164 165 161 155 146 144 148 156 175 182 170 188 184 195 192 204 227 212 231 241 248 295 293 327 331 342 6 347 348 346 335 348 343 356 1 4 2 2 5 3 1 3 0 352 353 353 4 3 25 25 18 18 34 50 71 72 82 86 81 72 62 66 73 83
184 170 164 139 157 164 163 155 153 145 136 140 143 144 142 149 157 167 171 162 170 197 220 200 181 200 219 220 244 236 219 235 259 311 343 334 11 344 0 339 327 340 341 2 2 8 4 4 1 0 348 353 5 324 340 50 19 20 30 34 38 46 34 55 70 81 76 80 91 97 103 99 96 100
100 96 87 97 112 115 131 136 127 121 119 120 121 129 138 139 165 167 162 155 176 186 204 196 196 223 230 218 229 257 247 244 278 302 340 322 344 336 329 296 328 344 345 359 3 2 5 357 334 261 254 330 342 336 3 10 16 20 30 42 40 46 50 49 59 73 84 81 87 93 98 95 103 94
115 110 112 117 117 111 107 103 108 119 129 136 135 137 146 156 122 82 121 140 202 210 227 207 196 224 218 220 228 227 242 262 273 297 314 326 335 328 311 330 348 341 347 355 360 357 351 352 338 337 352 357 353 1 17 16 21 30 40 50 60 55 56 65 67 65 59 41 75 92 93 89 84 89
112 118 121 124 126 125 123 128 129 132 136 134 135 146 159 157 140 167 188 168 199 207 213 212 218 225 230 227 232 259 266 239 241 284 312 301 320 326 331 345 345 335 343 351 346 349 352 352 360 352 7 6 4 358 18 20 32 51 55 62 70 84 80 71 72 68 62 59 59 74 62 127 129 158
131 121 119 116 103 104 119 136 138 143 140 135 143 168 181 160 164 171 207 183 197 216 213 219 219 228 231 230 237 244 252 279 293 287 289 310 300 304 314 319 318 328 328 350 336 344 348 344 2 358 4 11 5 1 5 1 33 29 49 74 81 95 102 116 119 100 77 51 31 26 61 102 133 114
128 126 126 127 129 128 129 128 128 135 137 138 154 161 164 176 171 175 194 209 233 214 221 227 220 219 225 237 245 249 241 222 272 261 264 264 275 287 288 298 306 322 323 334 325 332 345 334 349 350 349 5 10 12 25 16 0 28 55 57 97 93 103 117 132 124 107 98 33 19 21 42 71 107